Wind_Speed
26 25 23 22 19 16 14 13 10 8 8 7 6 5 5 5 5 6 6 6 6 4 4 4 4 3 3 6 8 11 13 15 16 18 18 17 17 16 15 17 18 19 20 20
26 25 24 22 20 17 14 13 12 11 10 9 8 6 6 6 6 5 5 5 4 2 1 2 3 4 6 8 11 13 14 15 16 17 16 16 16 17 17 18 19 19 20 20
25 23 23 22 20 17 15 14 14 13 13 12 10 9 8 7 5 5 4 3 1 1 2 4 5 7 8 10 11 12 13 14 15 15 16 17 18 18 19 20 20 20 21 21
24 22 22 22 20 18 16 16 16 15 15 14 12 10 10 9 9 8 7 6 4 3 3 4 6 7 8 8 10 11 12 13 15 17 18 19 19 20 20 21 21 22 22 22
22 21 20 20 19 17 16 15 15 15 15 14 14 13 13 12 12 11 10 9 7 6 6 6 6 7 8 9 10 12 13 15 17 18 19 20 20 20 21 21 22 22 22 22
20 19 17 17 17 16 15 14 13 13 13 13 14 14 13 13 13 12 11 10 9 8 7 7 7 8 9 10 12 13 15 16 18 19 20 21 21 22 22 22 22 21 21 21
18 16 15 14 14 14 13 13 12 12 12 13 13 13 12 12 12 11 10 10 9 9 9 9 9 10 10 12 13 14 16 17 19 20 20 21 22 22 22 21 21 20 19 19
18 15 14 13 11 12 11 10 11 11 11 11 11 11 11 11 11 11 11 10 10 11 11 11 12 12 13 14 15 16 17 18 19 20 20 20 20 20 19 19 19 18 18 18
20 16 14 12 10 9 8 7 8 9 9 9 9 9 9 10 11 11 12 12 13 13 13 14 15 16 17 17 17 17 17 18 18 18 18 17 17 17 16 16 16 16 17 17
23 18 15 12 9 8 7 5 5 6 6 6 6 7 8 9 10 12 13 14 14 14 15 15 16 17 18 18 18 17 17 17 17 16 16 16 15 15 14 14 15 15 15 16
28 23 17 13 9 7 5 4 3 4 4 5 6 6 7 9 10 11 13 14 14 15 15 16 16 17 17 17 17 17 17 17 16 16 16 15 14 14 14 14 14 14 14 13
30 27 22 16 10 6 5 4 3 4 4 5 5 6 7 8 9 11 12 13 14 15 15 16 16 16 16 16 17 17 18 18 17 17 16 16 16 15 15 15 15 15 13 13
30 28 25 19 12 7 4 3 3 4 4 5 6 6 7 8 9 10 11 12 14 14 14 15 15 15 15 16 17 17 18 18 18 18 18 18 18 18 17 16 17 16 16 15
29 28 26 22 15 9 6 4 4 5 5 6 6 5 6 7 7 8 10 11 12 13 13 14 14 14 14 15 16 17 18 19 19 20 20 20 20 20 20 19 19 19 18 17
25 27 26 24 19 12 9 7 6 6 7 7 6 4 4 5 6 7 8 10 11 11 12 13 13 14 14 14 15 16 17 18 19 19 20 21 22 21 21 22 22 22 22 21
21 23 25 23 20 16 12 10 8 8 9 9 7 5 4 4 4 5 7 8 9 10 11 12 12 13 13 13 14 15 16 17 18 18 19 21 22 22 22 23 23 24 24 25
16 19 21 22 21 19 16 14 12 10 10 10 7 5 4 3 3 3 5 6 7 9 10 10 11 11 12 12 13 14 15 16 17 17 18 20 21 22 22 23 24 24 25 25
14 15 16 19 20 20 18 17 15 13 11 9 8 5 4 3 2 2 2 3 5 6 8 9 10 10 11 11 12 14 15 15 16 16 17 18 19 20 21 22 23 23 23 24
14 13 13 15 17 18 19 18 17 16 14 12 9 6 3 3 3 2 2 2 3 5 6 8 9 9 10 10 11 12 13 14 15 16 16 17 17 18 20 21 21 21 22 22
16 14 13 12 13 15 17 18 17 17 16 15 12 9 5 3 4 3 3 3 3 3 5 7 8 8 9 9 10 11 12 13 14 16 16 16 17 17 18 18 19 20 19 19
18 17 15 14 13 13 15 16 16 16 16 16 14 11 7 5 4 5 5 5 4 4 4 6 7 7 7 7 8 8 9 11 13 14 16 16 16 16 16 16 17 17 17 17
20 19 18 17 15 14 14 15 15 16 16 16 15 14 11 7 6 7 7 7 6 6 6 6 6 6 6 6 6 6 6 8 10 12 14 15 15 15 14 15 15 15 15 14
22 22 21 20 18 17 15 15 15 16 16 16 16 15 14 12 9 6 9 9 9 9 8 8 7 7 6 5 4 4 4 5 7 9 12 14 14 14 13 13 13 13 13 13
25 24 24 23 22 20 18 17 16 16 16 16 16 16 14 13 11 10 8 9 11 11 11 10 10 9 7 6 5 5 5 4 5 7 10 12 13 13 13 12 12 12 12 12
28 27 26 26 25 25 23 21 19 18 17 17 17 17 16 15 13 12 11 9 9 12 13 13 12 11 10 8 8 7 6 6 6 6 8 10 11 12 12 12 11 11 11 12
32 30 28 28 28 28 27 25 24 22 20 19 19 18 18 17 16 15 13 12 11 10 12 13 14 14 13 12 10 10 9 8 8 8 8 9 10 11 11 11 11 11 11 11
36 34 32 31 31 31 31 30 28 26 24 22 22 21 20 20 19 18 16 15 13 11 11 12 14 16 16 15 14 13 12 11 10 9 9 9 9 10 10 10 10 11 11 11
Wind_Direction
43 48 52 58 66 74 79 83 86 85 86 85 78 85 93 103 113 118 115 115 116 120 132 142 157 187 237 260 273 282 289 293 296 297 300 302 303 299 295 293 292 290 288 287
45 50 55 59 62 66 71 76 77 78 77 76 75 86 95 99 111 128 133 127 130 121 160 230 260 274 281 286 288 289 292 295 298 300 300 299 298 296 294 292 292 289 287 286
42 45 49 54 57 63 69 75 75 74 79 84 84 82 87 88 92 98 96 89 82 328 301 292 289 292 292 294 295 296 297 300 301 301 300 300 300 298 296 293 291 290 288 287
41 43 48 50 55 62 71 77 75 72 76 82 80 84 85 84 81 78 71 58 44 11 341 322 314 313 311 309 307 307 307 305 304 305 305 303 302 300 298 296 293 291 289 287
34 38 43 46 50 58 67 77 80 79 76 79 81 81 81 79 79 76 70 63 54 40 23 4 349 339 331 322 316 313 311 309 308 307 306 304 303 302 301 298 295 292 289 287
27 30 34 39 43 50 57 72 78 80 80 84 87 85 83 81 78 73 67 59 49 36 24 11 356 341 331 324 318 314 311 310 309 307 305 303 302 301 300 299 296 292 289 286
18 22 27 30 36 40 50 62 72 76 80 84 86 83 77 71 66 61 55 48 39 29 17 5 353 343 335 328 323 319 315 312 310 309 307 306 305 303 301 299 296 292 288 286
9 11 15 17 22 33 43 58 67 69 73 76 74 69 63 58 53 48 44 38 31 24 16 7 359 351 344 339 334 330 326 323 321 320 318 316 313 310 306 302 299 295 292 290
5 5 6 10 14 24 36 53 61 63 66 68 64 57 51 46 44 42 40 38 33 26 18 10 3 357 352 348 345 343 341 339 338 336 334 331 328 323 317 311 307 303 300 297
8 4 3 5 11 22 32 47 54 55 56 55 51 48 43 42 43 43 40 36 29 22 16 11 5 1 358 357 357 357 356 355 353 352 350 347 344 341 336 329 322 315 310 307
14 12 11 9 13 24 38 48 51 42 40 38 36 38 39 39 41 39 35 30 25 22 18 14 10 8 6 7 9 10 10 9 7 6 4 3 1 358 353 348 344 338 331 326
16 17 17 16 20 35 51 57 48 27 21 18 18 25 32 35 36 34 31 29 25 23 20 17 15 14 15 18 20 21 22 22 23 23 21 19 15 11 7 5 2 360 356 351
17 19 21 22 31 44 52 47 30 13 8 7 5 11 21 28 30 30 30 29 27 25 22 22 21 22 24 28 31 32 33 33 32 30 28 25 23 20 18 17 15 13 12 11
14 18 22 25 31 38 35 18 1 354 348 348 351 359 11 21 24 27 28 31 30 26 25 25 26 28 30 33 36 36 36 35 33 32 31 30 29 28 29 30 29 27 27 30
12 15 20 25 30 33 28 17 1 349 341 337 337 341 358 12 18 24 28 31 31 28 26 26 28 31 33 35 36 37 36 34 34 34 33 33 34 35 36 37 37 38 40 43
6 11 15 21 27 30 27 19 6 351 343 336 326 319 322 346 8 18 24 29 30 29 27 25 27 30 32 32 34 33 32 32 33 35 36 37 39 39 41 43 43 46 48 51
352 2 9 14 19 23 24 20 12 359 347 340 330 317 313 316 335 359 15 24 27 27 25 23 24 27 29 30 30 31 32 32 33 35 37 39 40 41 43 45 47 50 53 56
330 344 355 5 10 14 18 20 18 14 8 359 347 327 305 296 301 325 353 12 21 21 21 21 21 22 24 26 28 31 32 32 33 34 36 39 41 41 43 45 48 51 53 55
302 319 335 348 359 5 10 14 16 17 15 11 5 355 323 287 276 280 306 333 360 11 13 14 16 17 19 22 26 30 33 34 34 36 36 37 39 40 41 43 45 49 52 54
284 293 307 323 339 350 358 6 9 11 13 13 10 4 346 300 264 261 274 286 310 344 359 4 6 9 13 18 23 29 35 38 38 37 37 37 37 39 40 41 43 46 49 52
275 277 285 296 310 327 340 348 356 4 8 10 9 5 352 322 279 261 264 269 279 296 323 342 351 354 1 11 19 26 35 41 40 38 36 35 35 36 38 39 41 41 43 45
270 268 272 279 287 300 315 328 337 344 352 0 7 7 3 346 304 268 259 258 263 273 288 305 322 333 340 352 5 15 25 33 35 34 32 30 30 31 34 35 36 36 36 37
265 263 264 267 273 281 291 304 316 326 334 342 350 358 2 2 349 303 265 260 260 261 270 280 289 302 311 320 331 340 352 6 17 22 24 24 24 24 24 25 28 30 29 30
263 261 259 259 263 268 275 284 294 305 315 324 332 341 347 352 353 347 316 276 262 261 264 268 272 277 283 290 299 306 312 326 346 1 10 15 18 20 20 19 20 22 24 24
260 259 257 256 257 259 263 269 277 286 295 305 313 322 331 338 342 341 340 326 286 267 264 263 264 264 265 271 278 286 292 297 308 327 344 358 8 14 17 16 15 15 17 17
256 256 256 255 255 255 256 259 264 271 279 288 297 305 312 320 327 334 334 331 326 298 275 264 258 257 258 260 266 273 281 287 292 301 316 333 349 2 11 14 12 11 10 10
254 253 254 254 254 254 253 254 257 260 265 273 282 290 297 304 311 318 325 329 325 320 301 280 265 257 255 256 258 262 269 278 286 292 300 311 325 340 355 5 8 6 4 4
Height
5771 5766 5762 5759 5758 5757 5757 5758 5759 5760 5761 5762 5763 5764 5765 5766 5767 5769 5769 5771 5772 5773 5775 5776 5778 5780 5781 5782 5783 5784 5784 5784 5784 5784 5783 5781 5780 5779 5777 5776 5775 5774 5772 5771
5778 5773 5770 5767 5765 5764 5763 5763 5763 5763 5764 5765 5765 5766 5767 5768 5769 5770 5771 5772 5773 5774 5776 5777 5778 5780 5781 5781 5781 5781 5781 5781 5780 5780 5779 5778 5776 5775 5773 5771 5770 5768 5767 5765
5785 5781 5777 5774 5771 5770 5768 5767 5767 5767 5768 5768 5768 5769 5769 5770 5771 5772 5773 5774 5775 5776 5777 5778 5778 5779 5779 5779 5779 5779 5778 5778 5777 5776 5775 5773 5772 5770 5768 5766 5765 5763 5761 5760
5792 5788 5784 5783 5778 5776 5774 5773 5772 5772 5771 5772 5772 5772 5773 5773 5773 5774 5775 5776 5777 5777 5777 5778 5778 5777 5777 5777 5777 5776 5775 5774 5773 5772 5770 5768 5766 5764 5762 5760 5758 5757 5755 5753
5797 5793 5790 5787 5784 5782 5780 5778 5778 5777 5777 5776 5776 5776 5776 5776 5777 5777 5778 5778 5779 5779 5779 5778 5778 5777 5777 5776 5775 5774 5773 5771 5770 5768 5766 5763 5761 5759 5757 5754 5752 5750 5748 5747
5802 5798 5795 5794 5790 5787 5786 5784 5783 5782 5781 5781 5780 5781 5781 5781 5780 5780 5781 5780 5780 5780 5779 5779 5778 5777 5776 5775 5773 5771 5770 5768 5765 5763 5761 5759 5756 5753 5751 5748 5746 5744 5742 5740
5806 5802 5799 5797 5794 5792 5791 5790 5787 5786 5786 5785 5785 5785 5785 5784 5784 5784 5783 5783 5782 5781 5780 5779 5778 5776 5775 5773 5770 5768 5766 5763 5761 5758 5756 5753 5750 5747 5744 5742 5740 5738 5736 5734
5807 5804 5804 5799 5797 5796 5795 5792 5791 5790 5790 5789 5789 5789 5788 5788 5787 5786 5785 5784 5783 5782 5780 5779 5777 5774 5772 5770 5767 5764 5762 5759 5756 5753 5750 5747 5744 5741 5738 5736 5734 5732 5730 5728
5809 5807 5803 5800 5799 5797 5796 5795 5794 5794 5793 5792 5792 5792 5791 5790 5789 5788 5787 5786 5784 5782 5780 5778 5775 5773 5770 5767 5764 5761 5758 5755 5752 5749 5746 5742 5739 5736 5734 5731 5729 5726 5724 5722
5809 5805 5803 5800 5799 5798 5797 5797 5797 5796 5796 5795 5795 5794 5793 5792 5791 5790 5789 5787 5785 5783 5781 5778 5775 5772 5769 5766 5763 5760 5757 5754 5751 5747 5744 5741 5737 5734 5731 5728 5725 5722 5720 5717
5812 5807 5803 5801 5799 5799 5798 5798 5799 5799 5798 5798 5797 5797 5796 5795 5793 5792 5791 5789 5787 5785 5782 5779 5776 5773 5770 5767 5764 5761 5757 5754 5751 5748 5744 5741 5737 5734 5730 5727 5723 5720 5716 5713
5816 5811 5806 5802 5800 5799 5799 5800 5800 5800 5800 5800 5799 5799 5798 5797 5795 5794 5793 5791 5789 5787 5784 5782 5778 5775 5772 5769 5766 5763 5759 5756 5753 5749 5746 5742 5738 5735 5731 5727 5723 5718 5715 5711
5820 5814 5809 5805 5802 5801 5801 5801 5801 5801 5801 5801 5800 5800 5799 5798 5797 5796 5795 5793 5791 5789 5787 5784 5781 5778 5775 5772 5769 5766 5763 5760 5756 5752 5748 5744 5740 5736 5732 5728 5723 5719 5714 5710
5823 5818 5813 5808 5805 5804 5803 5803 5802 5802 5802 5801 5801 5800 5800 5799 5799 5798 5796 5795 5793 5791 5789 5786 5784 5781 5778 5775 5772 5769 5766 5763 5759 5756 5752 5747 5743 5739 5734 5730 5725 5721 5716 5712
5826 5822 5818 5813 5809 5807 5805 5804 5803 5803 5802 5801 5801 5800 5800 5800 5799 5799 5798 5796 5795 5793 5791 5789 5786 5784 5781 5778 5775 5773 5770 5766 5763 5759 5755 5751 5747 5742 5738 5734 5729 5725 5720 5716
5828 5824 5820 5816 5813 5810 5807 5806 5804 5803 5802 5801 5800 5800 5800 5800 5800 5799 5799 5798 5796 5794 5793 5791 5788 5786 5784 5781 5778 5776 5773 5770 5766 5763 5759 5755 5751 5747 5743 5739 5734 5730 5726 5722
5828 5826 5823 5819 5816 5812 5810 5807 5805 5803 5802 5800 5799 5799 5799 5800 5800 5800 5799 5798 5797 5796 5794 5792 5790 5788 5786 5784 5781 5778 5775 5772 5770 5766 5763 5759 5756 5752 5748 5744 5740 5737 5733 5730
5828 5826 5823 5821 5817 5814 5811 5809 5806 5804 5802 5800 5799 5798 5798 5799 5799 5799 5799 5799 5798 5797 5795 5794 5792 5790 5788 5786 5783 5781 5778 5775 5772 5769 5766 5763 5760 5757 5753 5750 5746 5743 5740 5737
5825 5824 5823 5821 5818 5815 5812 5809 5807 5805 5802 5800 5798 5797 5797 5797 5798 5798 5798 5798 5798 5797 5796 5794 5793 5791 5789 5787 5785 5783 5780 5778 5775 5772 5769 5766 5763 5761 5758 5755 5752 5748 5746 5743
5821 5821 5820 5819 5817 5815 5813 5810 5808 5805 5803 5801 5799 5797 5796 5796 5796 5797 5797 5797 5797 5796 5795 5794 5793 5791 5790 5788 5787 5785 5782 5780 5778 5775 5772 5769 5767 5764 5762 5759 5756 5754 5751 5748
5816 5817 5817 5816 5815 5814 5812 5810 5808 5805 5803 5801 5799 5797 5796 5795 5794 5795 5795 5795 5795 5795 5795 5794 5793 5792 5790 5789 5788 5786 5784 5782 5780 5778 5775 5773 5770 5767 5765 5762 5760 5758 5755 5753
5810 5811 5812 5812 5812 5811 5810 5808 5807 5805 5803 5801 5799 5797 5795 5793 5793 5792 5793 5793 5793 5793 5793 5793 5792 5791 5790 5789 5788 5787 5785 5784 5782 5780 5777 5775 5773 5770 5768 5765 5763 5761 5759 5756
5803 5804 5805 5806 5807 5807 5806 5806 5804 5803 5801 5799 5798 5796 5794 5792 5791 5790 5790 5790 5790 5790 5790 5790 5790 5790 5789 5788 5787 5786 5785 5784 5783 5781 5779 5777 5774 5772 5770 5768 5766 5763 5761 5759
5795 5796 5798 5799 5800 5801 5802 5801 5801 5800 5799 5797 5796 5794 5793 5791 5790 5788 5786 5786 5786 5786 5787 5787 5787 5787 5787 5787 5786 5785 5785 5784 5783 5782 5780 5778 5775 5773 5771 5769 5767 5765 5763 5761
5785 5787 5789 5791 5793 5794 5795 5795 5795 5795 5795 5794 5793 5791 5790 5789 5788 5786 5784 5783 5782 5782 5782 5782 5782 5783 5784 5784 5784 5784 5783 5782 5782 5781 5780 5778 5776 5774 5772 5770 5768 5766 5765 5762
5775 5778 5780 5782 5783 5785 5787 5788 5789 5789 5789 5789 5789 5788 5786 5785 5784 5783 5781 5780 5778 5777 5777 5777 5778 5779 5780 5781 5781 5781 5781 5780 5780 5779 5779 5778 5776 5774 5772 5770 5769 5767 5765 5763
5764 5767 5769 5771 5773 5775 5777 5779 5781 5782 5783 5783 5783 5783 5782 5781 5780 5779 5778 5777 5775 5774 5773 5773 5773 5774 5775 5776 5777 5778 5778 5778 5777 5777 5777 5776 5775 5773 5772 5770 5768 5767 5765 5764